Time,TemperatureF,DewpointF,PressureIn,WindDirection,WindDirectionDegrees,WindSpeedMPH,WindSpeedGustMPH,Humidity,HourlyPrecipIn,Conditions,Clouds,dailyrainin,SoftwareType,DateUTC
2013-07-18 00:08:00,68.2,68.0,30.27,SW,234,0.0,0.0,99,0.00,,,0.00,weatherlink.com 1.10,2013-07-18 04:08:00,
2013-07-18 00:23:00,68.4,68.0,30.27,SW,234,0.0,0.0,98,0.00,,,0.00,weatherlink.com 1.10,2013-07-18 04:23:00,
2013-07-18 00:38:00,68.4,68.0,30.27,SW,234,0.0,0.0,98,0.00,,,0.00,weatherlink.com 1.10,2013-07-18 04:38:00,
2013-07-18 00:53:00,68.4,68.0,30.26,SW,234,0.0,0.0,98,0.00,,,0.00,weatherlink.com 1.10,2013-07-18 04:53:00,
2013-07-18 01:08:00,68.2,68.0,30.26,SW,234,0.0,0.0,98,0.00,,,0.00,weatherlink.com 1.10,2013-07-18 05:08:00,
2013-07-18 01:23:00,68.1,68.0,30.25,SW,234,0.0,0.0,99,0.00,,,0.00,weatherlink.com 1.10,2013-07-18 05:23:00,
2013-07-18 01:38:00,68.0,68.0,30.24,SW,234,0.0,0.0,99,0.00,,,0.00,weatherlink.com 1.10,2013-07-18 05:38:00,
2013-07-18 01:53:00,68.0,68.0,30.24,SW,234,0.0,0.0,99,0.00,,,0.00,weatherlink.com 1.10,2013-07-18 05:53:00,
2013-07-18 02:08:00,67.9,68.0,30.23,SW,234,0.0,0.0,99,0.00,,,0.00,weatherlink.com 1.10,2013-07-18 06:08:00,
2013-07-18 02:23:00,67.9,68.0,30.23,SW,234,0.0,0.0,99,0.00,,,0.00,weatherlink.com 1.10,2013-07-18 06:23:00,
2013-07-18 02:38:00,67.7,67.0,30.22,SW,234,0.0,0.0,98,0.00,,,0.00,weatherlink.com 1.10,2013-07-18 06:38:00,
2013-07-18 02:53:00,67.6,67.0,30.22,SW,234,0.0,0.0,98,0.00,,,0.00,weatherlink.com 1.10,2013-07-18 06:53:00,
2013-07-18 03:08:00,67.3,67.0,30.22,SW,234,0.0,0.0,98,0.00,,,0.00,weatherlink.com 1.10,2013-07-18 07:08:00,
2013-07-18 03:23:00,67.1,67.0,30.22,SW,234,0.0,0.0,98,0.00,,,0.00,weatherlink.com 1.10,2013-07-18 07:23:00,
2013-07-18 03:38:00,67.0,67.0,30.22,SW,234,0.0,0.0,98,0.00,,,0.00,weatherlink.com 1.10,2013-07-18 07:38:00,
2013-07-18 03:53:00,67.0,67.0,30.22,SW,234,0.0,0.0,98,0.00,,,0.00,weatherlink.com 1.10,2013-07-18 07:53:00,
2013-07-18 04:08:00,66.7,66.0,30.22,SW,234,0.0,0.0,98,0.00,,,0.00,weatherlink.com 1.10,2013-07-18 08:08:00,
2013-07-18 04:23:00,66.5,66.0,30.22,SW,234,0.0,0.0,98,0.00,,,0.00,weatherlink.com 1.10,2013-07-18 08:23:00,
2013-07-18 04:38:00,66.4,66.0,30.21,SW,234,0.0,0.0,98,0.00,,,0.00,weatherlink.com 1.10,2013-07-18 08:38:00,
2013-07-18 04:54:00,66.5,66.0,30.21,SW,234,0.0,0.0,99,0.00,,,0.00,weatherlink.com 1.10,2013-07-18 08:54:00,
2013-07-18 05:09:00,66.4,66.0,30.21,SW,234,0.0,0.0,99,0.00,,,0.00,weatherlink.com 1.10,2013-07-18 09:09:00,
2013-07-18 05:24:00,66.2,66.0,30.21,SW,234,0.0,0.0,99,0.00,,,0.00,weatherlink.com 1.10,2013-07-18 09:24:00,
2013-07-18 05:39:00,66.0,66.0,30.22,SW,234,0.0,0.0,99,0.00,,,0.00,weatherlink.com 1.10,2013-07-18 09:39:00,
2013-07-18 05:54:00,66.1,66.0,30.22,SW,234,0.0,0.0,99,0.00,,,0.00,weatherlink.com 1.10,2013-07-18 09:54:00,
2013-07-18 06:09:00,66.1,66.0,30.23,SW,234,0.0,0.0,99,0.00,,,0.00,weatherlink.com 1.10,2013-07-18 10:09:00,
2013-07-18 06:24:00,66.0,66.0,30.23,SW,234,0.0,0.0,99,0.00,,,0.00,weatherlink.com 1.10,2013-07-18 10:24:00,
2013-07-18 06:39:00,66.1,66.0,30.23,SW,234,0.0,0.0,99,0.00,,,0.00,weatherlink.com 1.10,2013-07-18 10:39:00,
2013-07-18 06:54:00,66.2,66.0,30.23,SW,234,0.0,0.0,99,0.00,,,0.00,weatherlink.com 1.10,2013-07-18 10:54:00,
2013-07-18 07:09:00,66.3,66.0,30.23,ESE,112,0.0,0.0,99,0.00,,,0.00,weatherlink.com 1.10,2013-07-18 11:09:00,
2013-07-18 07:24:00,66.4,66.0,30.23,ESE,112,0.0,0.0,99,0.00,,,0.00,weatherlink.com 1.10,2013-07-18 11:24:00,
2013-07-18 07:39:00,66.5,66.0,30.23,ESE,112,0.0,0.0,99,0.00,,,0.00,weatherlink.com 1.10,2013-07-18 11:39:00,
2013-07-18 07:54:00,66.4,66.0,30.23,ESE,112,0.0,0.0,99,0.00,,,0.00,weatherlink.com 1.10,2013-07-18 11:54:00,
2013-07-18 08:09:00,66.6,66.0,30.24,ESE,112,0.0,0.0,99,0.00,,,0.00,weatherlink.com 1.10,2013-07-18 12:09:00,
2013-07-18 08:24:00,66.8,67.0,30.24,ESE,112,0.0,0.0,99,0.00,,,0.00,weatherlink.com 1.10,2013-07-18 12:24:00,
2013-07-18 08:39:00,66.8,67.0,30.25,ESE,112,0.0,0.0,99,0.00,,,0.00,weatherlink.com 1.10,2013-07-18 12:39:00,
2013-07-18 08:54:00,67.1,67.0,30.25,ESE,112,0.0,0.0,99,0.00,,,0.00,weatherlink.com 1.10,2013-07-18 12:54:00,
2013-07-18 09:09:00,67.5,67.0,30.25,ESE,110,0.0,0.0,99,0.00,,,0.00,weatherlink.com 1.10,2013-07-18 13:09:00,
2013-07-18 09:24:00,67.9,68.0,30.25,ESE,110,0.0,0.0,99,0.00,,,0.00,weatherlink.com 1.10,2013-07-18 13:24:00,
2013-07-18 09:39:00,68.2,68.0,30.25,South,182,0.0,0.0,99,0.00,,,0.00,weatherlink.com 1.10,2013-07-18 13:39:00,
2013-07-18 09:54:00,68.8,69.0,30.24,South,182,0.0,0.0,99,0.00,,,0.00,weatherlink.com 1.10,2013-07-18 13:54:00,
2013-07-18 10:09:00,69.6,69.0,30.24,SSW,200,0.0,0.0,99,0.00,,,0.00,weatherlink.com 1.10,2013-07-18 14:09:00,
2013-07-18 10:24:00,70.8,70.0,30.24,SSW,200,0.0,0.0,98,0.00,,,0.00,weatherlink.com 1.10,2013-07-18 14:24:00,
2013-07-18 10:39:00,72.5,71.0,30.24,SW,220,0.0,0.0,96,0.00,,,0.00,weatherlink.com 1.10,2013-07-18 14:39:00,
2013-07-18 10:54:00,74.4,72.0,30.23,SW,220,0.0,0.0,92,0.00,,,0.00,weatherlink.com 1.10,2013-07-18 14:54:00,
2013-07-18 11:08:00,76.2,73.0,30.23,SW,225,0.0,0.0,90,0.00,,,0.00,weatherlink.com 1.10,2013-07-18 15:08:00,
2013-07-18 11:24:00,77.6,71.0,30.24,WSW,254,0.0,0.0,81,0.00,,,0.00,weatherlink.com 1.10,2013-07-18 15:24:00,
2013-07-18 11:39:00,78.3,73.0,30.23,West,272,0.0,0.0,84,0.00,,,0.00,weatherlink.com 1.10,2013-07-18 15:39:00,
2013-07-18 11:54:00,80.0,72.0,30.23,West,273,0.0,0.0,76,0.00,,,0.00,weatherlink.com 1.10,2013-07-18 15:54:00,
2013-07-18 12:09:00,80.8,72.0,30.22,West,269,0.0,0.0,74,0.00,,,0.00,weatherlink.com 1.10,2013-07-18 16:09:00,
2013-07-18 12:24:00,80.9,72.0,30.22,West,261,0.0,0.0,74,0.00,,,0.00,weatherlink.com 1.10,2013-07-18 16:24:00,
2013-07-18 12:39:00,81.5,73.0,30.22,West,261,0.0,0.0,75,0.00,,,0.00,weatherlink.com 1.10,2013-07-18 16:39:00,
2013-07-18 12:54:00,82.2,74.0,30.21,West,261,0.0,0.0,75,0.00,,,0.00,weatherlink.com 1.10,2013-07-18 16:54:00,
2013-07-18 13:09:00,82.5,73.0,30.21,West,259,0.0,0.0,74,0.00,,,0.00,weatherlink.com 1.10,2013-07-18 17:09:00,
2013-07-18 13:24:00,82.8,74.0,30.20,West,259,0.0,0.0,75,0.00,,,0.00,weatherlink.com 1.10,2013-07-18 17:24:00,
2013-07-18 13:39:00,81.9,72.0,30.20,West,265,0.0,0.0,73,0.00,,,0.00,weatherlink.com 1.10,2013-07-18 17:39:00,
2013-07-18 13:54:00,82.0,74.0,30.20,West,261,0.0,0.0,77,0.00,,,0.00,weatherlink.com 1.10,2013-07-18 17:54:00,
2013-07-18 14:09:00,82.6,74.0,30.20,South,178,0.0,0.0,75,0.00,,,0.00,weatherlink.com 1.10,2013-07-18 18:09:00,
2013-07-18 14:24:00,82.8,76.0,30.19,NW,304,0.0,0.0,79,0.00,,,0.00,weatherlink.com 1.10,2013-07-18 18:24:00,
2013-07-18 14:39:00,81.9,72.0,30.18,NW,306,0.0,0.0,72,0.00,,,0.00,weatherlink.com 1.10,2013-07-18 18:39:00,
2013-07-18 14:54:00,82.1,73.0,30.18,WNW,284,0.0,0.0,73,0.00,,,0.00,weatherlink.com 1.10,2013-07-18 18:54:00,
2013-07-18 15:09:00,81.8,74.0,30.17,WNW,284,0.0,0.0,76,0.00,,,0.00,weatherlink.com 1.10,2013-07-18 19:09:00,
2013-07-18 15:24:00,82.3,75.0,30.16,WNW,284,0.0,0.0,78,0.00,,,0.00,weatherlink.com 1.10,2013-07-18 19:24:00,
2013-07-18 15:39:00,82.2,74.0,30.16,WNW,283,0.0,0.0,76,0.00,,,0.00,weatherlink.com 1.10,2013-07-18 19:39:00,
2013-07-18 15:54:00,81.8,74.0,30.16,WNW,283,0.0,0.0,76,0.00,,,0.00,weatherlink.com 1.10,2013-07-18 19:54:00,
2013-07-18 16:09:00,81.9,74.0,30.16,WNW,283,0.0,0.0,77,0.00,,,0.00,weatherlink.com 1.10,2013-07-18 20:09:00,
2013-07-18 16:24:00,81.6,75.0,30.14,WNW,283,0.0,0.0,79,0.00,,,0.00,weatherlink.com 1.10,2013-07-18 20:24:00,
2013-07-18 16:39:00,82.1,74.0,30.14,West,272,0.0,0.0,76,0.00,,,0.00,weatherlink.com 1.10,2013-07-18 20:39:00,
2013-07-18 16:54:00,82.2,73.0,30.14,West,270,0.0,0.0,73,0.00,,,0.00,weatherlink.com 1.10,2013-07-18 20:54:00,
2013-07-18 17:09:00,82.2,74.0,30.14,WSW,248,0.0,0.0,75,0.00,,,0.00,weatherlink.com 1.10,2013-07-18 21:09:00,
2013-07-18 17:24:00,82.2,73.0,30.14,NW,314,0.0,0.0,73,0.00,,,0.00,weatherlink.com 1.10,2013-07-18 21:24:00,
2013-07-18 17:39:00,82.3,73.0,30.13,NW,314,0.0,0.0,73,0.00,,,0.00,weatherlink.com 1.10,2013-07-18 21:39:00,
2013-07-18 17:54:00,83.3,74.0,30.14,NW,314,0.0,0.0,73,0.00,,,0.00,weatherlink.com 1.10,2013-07-18 21:54:00,
2013-07-18 18:09:00,84.5,74.0,30.13,NW,314,0.0,0.0,70,0.00,,,0.00,weatherlink.com 1.10,2013-07-18 22:09:00,
2013-07-18 18:24:00,85.8,74.0,30.13,NW,314,0.0,0.0,67,0.01,,,0.01,weatherlink.com 1.10,2013-07-18 22:24:00,
2013-07-18 18:39:00,85.4,72.0,30.13,ENE,63,0.0,0.0,65,0.01,,,0.01,weatherlink.com 1.10,2013-07-18 22:39:00,
2013-07-18 18:54:00,84.2,73.0,30.13,ENE,71,0.0,0.0,68,0.01,,,0.01,weatherlink.com 1.10,2013-07-18 22:54:00,
2013-07-18 19:09:00,83.8,72.0,30.14,ENE,71,0.0,0.0,68,0.00,,,0.01,weatherlink.com 1.10,2013-07-18 23:09:00,
2013-07-18 19:24:00,82.8,72.0,30.14,ENE,71,0.0,0.0,69,0.00,,,0.01,weatherlink.com 1.10,2013-07-18 23:24:00,
2013-07-18 19:39:00,82.2,72.0,30.13,ENE,71,0.0,0.0,72,0.00,,,0.01,weatherlink.com 1.10,2013-07-18 23:39:00,
2013-07-18 19:54:00,81.0,72.0,30.14,ENE,71,0.0,0.0,73,0.00,,,0.01,weatherlink.com 1.10,2013-07-18 23:54:00,
2013-07-18 20:09:00,79.7,72.0,30.14,ENE,71,0.0,0.0,76,0.00,,,0.01,weatherlink.com 1.10,2013-07-19 00:09:00,
2013-07-18 20:25:00,78.8,71.0,30.14,ENE,71,0.0,0.0,78,0.00,,,0.01,weatherlink.com 1.10,2013-07-19 00:25:00,
2013-07-18 20:40:00,78.0,71.0,30.14,ENE,71,0.0,0.0,79,0.00,,,0.01,weatherlink.com 1.10,2013-07-19 00:40:00,
2013-07-18 20:55:00,77.3,71.0,30.14,ENE,71,0.0,0.0,82,0.00,,,0.01,weatherlink.com 1.10,2013-07-19 00:55:00,
2013-07-18 21:10:00,76.4,71.0,30.14,ENE,71,0.0,0.0,84,0.00,,,0.01,weatherlink.com 1.10,2013-07-19 01:10:00,
2013-07-18 21:25:00,75.7,69.0,30.15,ENE,71,0.0,0.0,80,0.00,,,0.01,weatherlink.com 1.10,2013-07-19 01:25:00,
2013-07-18 21:40:00,74.8,69.0,30.15,ENE,71,0.0,0.0,82,0.00,,,0.01,weatherlink.com 1.10,2013-07-19 01:40:00,
2013-07-18 21:55:00,74.4,70.0,30.16,ENE,71,0.0,0.0,85,0.00,,,0.01,weatherlink.com 1.10,2013-07-19 01:55:00,
2013-07-18 22:10:00,74.0,70.0,30.17,ENE,71,0.0,0.0,86,0.00,,,0.01,weatherlink.com 1.10,2013-07-19 02:10:00,
2013-07-18 22:25:00,73.6,71.0,30.17,ENE,71,0.0,0.0,90,0.00,,,0.01,weatherlink.com 1.10,2013-07-19 02:25:00,
2013-07-18 22:40:00,73.0,70.0,30.17,ENE,71,0.0,0.0,90,0.00,,,0.01,weatherlink.com 1.10,2013-07-19 02:40:00,
2013-07-18 22:55:00,72.6,70.0,30.17,ENE,71,0.0,0.0,92,0.00,,,0.01,weatherlink.com 1.10,2013-07-19 02:55:00,
2013-07-18 23:10:00,71.9,69.0,30.16,ENE,71,0.0,0.0,91,0.00,,,0.01,weatherlink.com 1.10,2013-07-19 03:10:00,
2013-07-18 23:25:00,71.7,69.0,30.17,ENE,71,0.0,0.0,92,0.00,,,0.01,weatherlink.com 1.10,2013-07-19 03:25:00,
2013-07-18 23:40:00,71.2,69.0,30.17,ENE,71,0.0,0.0,93,0.00,,,0.01,weatherlink.com 1.10,2013-07-19 03:40:00,
2013-07-18 23:55:00,70.7,69.0,30.17,ENE,71,0.0,0.0,93,0.00,,,0.01,weatherlink.com 1.10,2013-07-19 03:55:00,